IBE006 LPPT-LEZL

Flight info

Callsign IBE006
Flight time N/A
Altitude 27000
Route DUZOP MINTA N747 OSLEP
Aircraft B738/M-SDE2E3FGHIRWXY/LB1

Departure

Time N/A
Airport Lisbon Humberto Delgado Airport (LPPT)

Arrival

Time 2026-05-08 08:49
Airport Seville Airport (LEZL)
Time Latitude Longitude Altitude Speed Heading
2026-05-08 08:24 38.58412 -8.68803 14538 ft 386 kts 120°
2026-05-08 08:25 38.57156 -8.65755 15158 ft 389 kts 119°
2026-05-08 08:25 38.55898 -8.62667 15826 ft 394 kts 119°
2026-05-08 08:25 38.54622 -8.59558 16433 ft 396 kts 119°
2026-05-08 08:25 38.53331 -8.56433 17001 ft 400 kts 119°
2026-05-08 08:26 38.52056 -8.53315 17547 ft 403 kts 119°
2026-05-08 08:26 38.50752 -8.50132 18085 ft 406 kts 119°
2026-05-08 08:26 38.49432 -8.46939 18609 ft 409 kts 119°
2026-05-08 08:26 38.48108 -8.43713 19115 ft 412 kts 119°
2026-05-08 08:27 38.46775 -8.40458 19610 ft 415 kts 119°
2026-05-08 08:27 38.45425 -8.37192 20082 ft 418 kts 119°
2026-05-08 08:27 38.44073 -8.33900 20543 ft 420 kts 119°
2026-05-08 08:27 38.42716 -8.30594 20987 ft 423 kts 119°
2026-05-08 08:28 38.41343 -8.27261 21415 ft 425 kts 119°
2026-05-08 08:28 38.40011 -8.23889 21832 ft 428 kts 118°
2026-05-08 08:28 38.38695 -8.20467 22226 ft 430 kts 117°
2026-05-08 08:28 38.37367 -8.17044 22611 ft 432 kts 118°
2026-05-08 08:29 38.36002 -8.13618 22977 ft 434 kts 119°
2026-05-08 08:29 38.34602 -8.10199 23329 ft 436 kts 119°
2026-05-08 08:29 38.33177 -8.06772 23671 ft 438 kts 120°
2026-05-08 08:29 38.31744 -8.03341 23993 ft 440 kts 119°
2026-05-08 08:30 38.30334 -7.99922 24305 ft 442 kts 119°
2026-05-08 08:30 38.28893 -7.96400 24606 ft 444 kts 119°
2026-05-08 08:30 38.26032 -7.89390 25164 ft 448 kts 119°
2026-05-08 08:31 38.24581 -7.85879 25432 ft 449 kts 119°
2026-05-08 08:31 38.23128 -7.82358 25680 ft 451 kts 119°
2026-05-08 08:31 38.21674 -7.78815 25926 ft 452 kts 119°
2026-05-08 08:31 38.20216 -7.75261 26156 ft 454 kts 119°
2026-05-08 08:32 38.18765 -7.71749 26379 ft 455 kts 119°
2026-05-08 08:32 38.17294 -7.68182 26597 ft 457 kts 119°
2026-05-08 08:32 38.15801 -7.64550 26802 ft 458 kts 119°
2026-05-08 08:32 38.14318 -7.60963 27002 ft 459 kts 119°
2026-05-08 08:33 38.12853 -7.57415 27142 ft 462 kts 119°
2026-05-08 08:33 38.11356 -7.53784 27155 ft 467 kts 119°
2026-05-08 08:33 38.09840 -7.50103 27129 ft 473 kts 119°
2026-05-08 08:33 38.08305 -7.46382 27086 ft 478 kts 119°
2026-05-08 08:34 38.06754 -7.42630 27041 ft 483 kts 119°
2026-05-08 08:34 38.05182 -7.38831 27011 ft 487 kts 119°
2026-05-08 08:34 38.03601 -7.35013 27001 ft 491 kts 119°
2026-05-08 08:34 38.02012 -7.31175 27002 ft 493 kts 119°
2026-05-08 08:35 38.00415 -7.27319 27003 ft 495 kts 119°
2026-05-08 08:35 37.98807 -7.23442 27004 ft 497 kts 119°
2026-05-08 08:35 37.97194 -7.19556 27004 ft 499 kts 119°
2026-05-08 08:35 37.95573 -7.15652 27004 ft 501 kts 119°
2026-05-08 08:36 37.93949 -7.11748 27003 ft 502 kts 119°
2026-05-08 08:36 37.92325 -7.07844 27003 ft 495 kts 119°
2026-05-08 08:36 37.90765 -7.04088 26994 ft 469 kts 119°
2026-05-08 08:36 37.89284 -7.00515 26983 ft 453 kts 119°
2026-05-08 08:37 37.87822 -6.96989 26979 ft 453 kts 119°
2026-05-08 08:37 37.86348 -6.93447 26980 ft 456 kts 119°
2026-05-08 08:37 37.84865 -6.89885 26981 ft 459 kts 119°
2026-05-08 08:37 37.83379 -6.86314 26983 ft 460 kts 119°
2026-05-08 08:38 37.81889 -6.82734 26983 ft 460 kts 119°
2026-05-08 08:38 37.80416 -6.79196 26983 ft 460 kts 119°
2026-05-08 08:38 37.78928 -6.75626 26983 ft 459 kts 119°
2026-05-08 08:38 37.77439 -6.72054 26983 ft 459 kts 119°
2026-05-08 08:39 37.75936 -6.68455 26565 ft 469 kts 119°
2026-05-08 08:39 37.74389 -6.64759 25953 ft 483 kts 119°
2026-05-08 08:39 37.72808 -6.60987 25317 ft 482 kts 119°
2026-05-08 08:39 37.71263 -6.57299 24678 ft 468 kts 119°
2026-05-08 08:40 37.69763 -6.53713 24047 ft 456 kts 119°
2026-05-08 08:40 37.68297 -6.50206 23418 ft 447 kts 119°
2026-05-08 08:40 37.66859 -6.46766 22791 ft 440 kts 119°
2026-05-08 08:40 37.65443 -6.43376 22164 ft 434 kts 119°
2026-05-08 08:41 37.64044 -6.40025 21537 ft 429 kts 119°
2026-05-08 08:41 37.62660 -6.36712 20911 ft 425 kts 119°
2026-05-08 08:41 37.61286 -6.33424 20285 ft 422 kts 119°
2026-05-08 08:41 37.59915 -6.30157 19659 ft 420 kts 120°
2026-05-08 08:42 37.58551 -6.26913 19033 ft 418 kts 119°
2026-05-08 08:42 37.57199 -6.23689 18409 ft 416 kts 119°
2026-05-08 08:42 37.55850 -6.20469 17783 ft 414 kts 119°
2026-05-08 08:42 37.54508 -6.17267 17159 ft 413 kts 119°
2026-05-08 08:43 37.53165 -6.14068 16534 ft 412 kts 119°
2026-05-08 08:43 37.51824 -6.10875 15908 ft 411 kts 119°
2026-05-08 08:43 37.50508 -6.07743 15293 ft 411 kts 119°
2026-05-08 08:43 37.49171 -6.04568 14668 ft 410 kts 119°
2026-05-08 08:44 37.47835 -6.01397 14042 ft 409 kts 119°
2026-05-08 08:44 37.46514 -5.98263 13416 ft 393 kts 119°
2026-05-08 08:44 37.45285 -5.95338 12779 ft 364 kts 120°
2026-05-08 08:44 37.44146 -5.92618 12143 ft 340 kts 120°
2026-05-08 08:45 37.43067 -5.90067 11508 ft 321 kts 120°
2026-05-08 08:45 37.42034 -5.87653 10874 ft 306 kts 120°
2026-05-08 08:45 37.41053 -5.85340 10242 ft 294 kts 120°
2026-05-08 08:45 37.40110 -5.83108 9610 ft 284 kts 120°
2026-05-08 08:46 37.39199 -5.80948 8979 ft 276 kts 120°
2026-05-08 08:46 37.38316 -5.78846 8351 ft 269 kts 120°
2026-05-08 08:46 37.37483 -5.76750 7487 ft 273 kts 112°
2026-05-08 08:46 37.37397 -5.74374 6386 ft 275 kts 64°
2026-05-08 08:47 37.38700 -5.72960 5680 ft 243 kts
2026-05-08 08:47 37.40157 -5.73698 4450 ft 241 kts 303°
2026-05-08 08:47 37.40843 -5.75738 3470 ft 261 kts 291°
2026-05-08 08:47 37.41475 -5.77843 3084 ft 254 kts 290°
2026-05-08 08:48 37.41880 -5.80092 1917 ft 267 kts 274°
2026-05-08 08:48 37.41873 -5.82365 1337 ft 248 kts 268°
2026-05-08 08:48 37.41804 -5.84442 882 ft 231 kts 268°
2026-05-08 08:48 37.41792 -5.86400 324 ft 220 kts 271°
2026-05-08 08:49 37.41814 -5.88220 121 ft 189 kts 271°
2026-05-08 08:49 37.41801 -5.89466 119 ft 100 kts 280°
2026-05-08 08:49 37.41985 -5.90002 119 ft 54 kts 335°
2026-05-08 08:49 37.42141 -5.90030 119 ft 6 kts 61°